Location: ?????
(31.8092°N, 35.2590°E)
Time: 19:52:24
(UTC+00:00)

Cosmos 2278 Rocket - Pass Details

Date: 20 June 2021
Orbit: 840 x 847 km, 71.0° (Epoch: 31 July)

Event Time Altitude Azimuth Distance (km) Brightness Sun altitude
Rises 19:31:10 0° 354° (N) 3,405 6.3 -26.7°
Reaches altitude 10° 19:34:08 10° 9° (N) 2,468 5.2 -27.0°
Maximum altitude 19:38:36 23° 61° (ENE) 1,704 3.7 -27.5°
Enters shadow 19:38:43 23° 63° (ENE) 1,705 3.7 -27.5°
